Theta_e
280 279 279 278 277 277 277 277 276 276 276 276 276 276 276 276 276 276 276 275 276 275 275 275 275 275 275 275 275 275 276 276 276 276 275 275 276 276 276 276 276 276 276 276 277 277 276 276 276 276 277 276 276 276 276 277 277 278 278 278 277 278 277 276 274 275 278 282 282 283 286 288 289 292 293 295 296 298 297 300 301 302 302 303 305
279 278 278 278 277 277 276 276 276 276 275 275 275 275 275 275 275 275 274 275 275 274 274 274 275 275 275 275 275 275 275 275 275 275 274 274 274 275 275 275 274 274 274 274 274 275 276 275 275 275 275 275 275 275 275 275 276 276 277 277 276 277 278 276 276 275 275 279 280 284 285 288 287 291 293 294 295 297 298 298 301 303 303 303 303
279 278 277 277 277 276 276 276 275 275 275 275 275 275 275 275 275 274 274 274 274 274 274 274 274 274 274 274 274 273 273 273 273 273 272 272 272 272 273 273 272 272 272 272 272 273 273 273 273 274 274 273 274 274 275 275 275 275 275 276 276 276 276 276 275 273 274 275 278 279 281 283 284 288 293 295 296 297 298 299 300 303 303 302 303
278 277 277 276 276 276 275 275 275 274 274 275 274 274 274 274 274 273 273 273 273 273 273 273 273 272 272 272 272 272 271 271 271 271 271 271 270 270 271 271 271 271 271 271 271 271 271 271 271 272 273 272 272 273 273 274 274 275 275 275 275 275 275 276 276 275 274 274 276 277 280 281 283 287 292 295 296 297 299 300 300 302 303 303 303
277 277 276 275 275 275 275 275 274 274 274 274 274 274 273 273 273 272 272 272 272 272 272 272 271 271 270 270 270 270 270 270 269 269 269 270 269 269 269 269 270 270 270 270 271 270 270 270 270 271 271 271 271 271 272 273 274 274 274 274 274 275 275 275 275 276 275 275 277 280 282 283 285 287 291 293 295 297 298 299 299 300 301 302 303
277 276 276 275 274 274 274 274 274 274 274 273 273 273 273 272 272 272 271 271 270 270 270 270 270 269 269 269 269 269 269 269 269 268 269 269 269 269 269 269 269 269 269 269 269 269 269 269 270 270 270 270 270 271 272 272 272 273 273 274 274 274 274 274 275 275 275 277 278 279 282 283 286 288 292 294 293 295 294 297 298 299 299 299 302
276 275 275 274 274 274 274 274 274 273 273 273 273 272 272 271 270 270 270 269 268 268 269 268 268 268 268 268 268 268 268 268 268 268 268 268 269 268 268 269 269 268 268 269 269 269 269 269 270 270 270 270 270 271 271 271 272 272 273 273 274 274 273 273 274 274 275 275 275 277 279 282 284 285 291 295 294 296 294 294 294 298 298 298 299
275 274 274 274 274 274 274 274 273 273 273 272 271 271 270 269 269 269 268 267 267 267 267 267 267 267 267 268 268 268 268 268 268 268 268 268 268 268 268 268 268 268 268 269 269 269 269 270 270 271 271 271 271 272 272 272 272 272 273 273 273 273 273 273 273 273 274 275 276 278 281 283 286 289 292 294 294 293 295 295 294 295 296 298 300
274 274 273 273 274 274 273 273 272 272 271 271 270 269 268 268 267 267 266 266 266 266 266 266 266 266 267 267 268 268 268 268 268 268 268 268 269 269 269 269 270 269 270 270 270 271 271 271 271 271 272 274 275 275 275 275 273 272 273 273 273 273 272 273 273 273 273 274 275 277 278 281 285 287 289 290 290 290 294 296 295 296 296 295 297
273 273 273 273 273 273 272 272 271 271 270 269 269 268 267 266 266 265 265 265 266 266 266 266 266 266 267 267 268 268 268 268 269 271 272 270 270 270 270 270 270 270 269 269 270 270 271 271 272 275 275 275 275 276 277 277 278 276 274 274 274 274 273 273 273 273 273 274 275 277 277 279 282 287 288 290 292 295 293 294 293 294 295 294 295
273 273 273 273 272 272 271 271 270 269 269 268 267 266 265 265 264 264 264 264 264 265 265 266 266 267 267 267 267 267 268 268 270 272 273 274 272 270 269 270 270 270 270 270 269 270 271 271 272 273 274 275 275 277 277 278 278 279 279 279 279 276 274 274 274 274 274 274 276 277 277 278 281 285 288 290 291 292 292 293 292 292 291 290 288
272 272 273 272 271 271 271 270 269 268 267 266 265 265 264 263 263 264 264 264 264 265 265 266 266 267 267 267 267 267 267 269 271 272 273 274 274 271 271 270 270 270 270 270 270 271 271 271 272 273 273 274 274 274 276 277 278 278 279 279 279 280 280 277 275 275 275 275 276 277 278 278 280 283 287 289 289 291 291 291 290 289 288 288 289
272 271 271 271 270 270 269 268 267 266 266 265 264 263 263 263 263 263 263 264 264 264 265 265 266 266 266 266 266 266 267 269 271 272 273 274 275 274 271 271 271 271 271 271 271 271 271 271 272 273 273 276 275 275 275 275 277 278 279 279 279 280 281 281 281 278 277 276 276 277 279 280 280 282 287 289 290 289 290 289 288 287 287 286 287
271 270 270 270 269 269 267 267 266 266 265 264 263 263 262 262 263 264 264 264 264 264 265 265 265 265 266 265 266 266 266 268 271 273 273 274 275 274 272 271 271 271 271 271 271 271 271 271 271 272 273 274 275 275 275 275 275 276 276 276 276 277 279 280 280 280 279 277 277 276 279 281 281 283 286 290 289 288 287 287 287 286 286 286 288
270 270 269 269 268 267 266 266 265 265 264 263 262 262 262 263 263 264 264 264 264 264 264 264 264 264 264 265 265 265 266 270 272 273 273 274 275 275 271 271 270 270 271 271 271 271 272 272 272 272 272 273 274 275 275 275 276 275 275 275 276 276 277 277 277 277 277 277 278 279 280 281 283 284 286 289 290 290 289 287 287 286 286 287 287
269 269 268 268 267 266 265 265 264 263 263 262 262 262 263 263 262 263 263 264 264 265 264 264 264 264 264 264 264 264 266 270 271 272 273 274 275 271 271 271 271 271 271 271 271 271 271 271 271 271 272 272 275 277 277 276 276 275 275 276 276 276 277 279 280 280 279 278 279 279 280 284 286 286 287 288 290 290 289 287 286 285 285 285 285
268 268 267 267 266 266 265 264 263 262 262 261 261 261 262 262 263 264 263 263 263 263 263 264 264 264 264 264 264 264 265 268 271 272 273 274 273 271 271 271 270 270 270 271 271 271 272 272 272 272 272 272 275 277 278 278 275 275 275 276 276 276 277 278 281 282 282 282 283 284 285 285 287 289 290 290 290 289 288 285 285 286 285 284 285
268 267 266 266 265 264 264 263 262 262 261 261 261 262 262 263 263 263 262 262 263 263 263 263 264 264 264 264 264 264 265 268 271 273 273 274 274 271 271 270 270 270 270 271 271 271 272 274 274 272 272 272 276 277 278 277 274 275 275 275 275 276 277 278 279 279 282 282 283 284 284 285 287 289 290 291 290 290 287 284 286 286 284 285 284
267 266 266 265 265 263 263 262 262 261 260 261 261 260 261 262 262 263 263 263 263 263 263 263 263 264 264 264 266 266 266 268 271 272 273 275 273 271 271 270 270 270 270 270 271 272 272 273 275 274 274 274 277 278 279 278 275 276 275 275 275 275 277 278 278 278 279 280 282 283 284 285 287 288 289 290 290 290 290 288 286 285 284 284 285
267 266 266 264 263 262 262 261 261 260 260 260 260 261 262 262 262 262 262 263 263 263 263 263 262 263 264 265 266 267 267 268 269 273 274 275 275 272 272 271 270 270 271 271 270 271 272 272 274 276 277 277 278 279 279 279 276 275 275 275 274 275 278 279 279 279 279 279 281 282 284 286 287 288 288 289 289 289 289 288 287 286 285 285 285
265 265 264 262 262 261 261 260 259 260 260 260 261 261 262 262 261 261 261 262 262 262 261 262 263 264 265 267 267 267 268 268 269 273 274 275 275 275 272 272 272 271 271 271 271 271 271 271 272 275 277 277 278 278 279 279 279 276 276 275 276 278 280 278 279 280 279 279 280 281 283 284 285 287 287 288 288 288 288 288 287 287 286 285 285
264 263 262 261 260 260 260 260 259 259 259 260 260 260 261 260 260 260 262 261 260 260 261 262 263 264 266 267 267 268 269 270 269 272 274 274 275 276 273 272 273 272 271 270 270 270 270 271 271 273 276 276 277 277 278 278 279 276 276 279 280 281 279 280 280 280 280 280 280 281 282 283 284 285 286 287 288 287 288 288 287 287 287 287 286
262 262 261 259 259 258 259 258 259 259 259 259 259 259 260 260 259 260 260 260 260 261 262 263 264 264 265 266 267 268 268 269 271 271 273 274 276 276 276 274 276 272 270 269 269 270 271 271 272 274 276 277 278 278 279 279 278 277 279 280 280 281 281 279 280 280 280 280 280 280 281 282 283 284 285 286 287 288 288 287 287 287 287 288 289
261 260 258 258 258 258 258 258 259 259 259 259 259 259 259 259 260 261 260 261 261 262 263 263 264 264 264 265 266 267 268 269 271 272 272 274 275 276 276 276 275 272 271 270 270 270 270 271 272 275 276 277 278 278 279 279 277 280 280 281 281 281 279 279 280 280 280 280 280 280 281 282 284 284 285 286 287 288 288 288 288 288 288 289 289
259 258 258 258 258 258 258 259 259 258 258 259 259 260 258 259 260 261 260 261 262 262 262 263 263 264 265 265 265 266 268 268 269 271 273 274 275 275 275 275 274 274 270 270 271 271 273 274 274 275 275 276 276 278 278 277 278 279 279 280 280 278 278 278 279 279 280 280 280 281 281 283 284 285 286 287 288 288 287 287 288 288 288 288 289
258 257 257 257 257 257 257 257 257 257 258 259 259 260 259 260 260 261 261 262 262 262 262 263 264 264 264 265 265 266 267 268 269 269 271 272 272 273 273 273 272 273 272 271 273 273 273 273 273 273 273 272 271 272 274 275 277 278 279 280 278 278 279 279 279 280 279 280 281 281 282 284 285 286 287 287 287 286 287 287 287 287 287 287 288
257 257 257 257 256 257 258 259 258 257 257 259 259 259 260 260 260 260 261 262 262 262 262 264 264 264 264 264 265 266 266 267 268 269 270 270 270 270 269 268 271 271 269 269 270 268 268 269 269 272 271 272 272 273 273 273 273 274 276 277 278 279 280 280 280 280 281 281 281 282 283 285 286 286 286 286 286 287 287 286 286 286 287 288 288
257 257 257 257 257 257 258 257 257 258 258 258 259 260 260 260 260 261 261 261 261 262 264 264 264 264 264 265 265 265 266 267 267 268 269 269 269 269 268 267 267 267 267 268 268 267 266 268 269 268 268 268 268 268 269 270 270 271 271 272 274 275 277 281 282 282 282 283 283 284 284 284 284 285 286 286 286 286 287 287 286 286 287 288 288
257 256 257 257 257 257 257 257 258 258 257 257 258 259 259 259 260 261 262 263 264 264 265 265 265 265 265 265 265 264 266 266 267 272 270 272 270 268 267 267 267 267 269 272 267 266 265 265 265 265 265 265 265 266 267 267 268 269 269 270 271 272 274 276 279 282 283 283 283 282 283 284 284 285 285 285 285 286 287 287 287 287 287 288 288
256 257 257 258 257 257 257 256 256 256 257 258 258 258 259 262 262 262 262 266 267 268 268 266 266 266 266 266 267 266 266 267 272 273 272 272 272 272 271 271 271 269 270 270 267 264 263 263 264 264 264 264 264 265 265 266 266 267 268 269 269 270 271 273 274 276 281 283 283 283 283 283 283 284 284 284 285 286 287 287 286 287 287 287 288
257 257 257 257 257 257 257 257 257 257 257 257 257 258 259 260 263 264 266 266 266 267 268 268 268 269 267 266 267 270 271 272 272 272 272 272 272 271 271 270 270 271 270 265 263 262 262 262 262 263 264 264 264 264 265 265 266 266 266 267 268 269 270 270 271 273 273 274 280 284 284 284 283 284 284 285 285 286 286 287 287 287 287 288 289
257 257 258 257 257 257 258 257 257 257 257 257 257 258 258 259 260 264 265 264 266 266 267 267 268 268 269 268 267 266 269 270 271 271 271 271 271 271 270 269 269 270 269 266 261 261 261 261 262 262 263 263 263 264 265 265 265 265 266 266 267 268 268 268 270 270 270 272 275 280 284 284 285 285 285 285 285 285 286 286 287 287 288 289 291
258 257 257 257 256 256 257 257 257 257 256 256 256 257 257 257 258 258 260 263 264 265 266 266 267 267 268 268 269 269 270 270 270 270 270 270 270 270 269 268 268 269 267 261 260 260 260 261 261 262 262 262 263 264 264 265 265 265 266 266 266 267 268 269 270 269 271 272 274 277 280 284 285 285 285 285 285 285 286 286 287 288 289 290 291
257 257 257 257 257 257 257 256 256 256 256 256 256 256 256 255 254 254 255 256 258 260 263 264 265 266 266 267 268 269 269 269 269 269 269 269 269 269 267 263 266 266 264 259 259 259 260 260 260 261 262 263 263 264 264 265 265 265 266 266 267 268 268 269 269 269 270 270 271 274 276 280 285 285 285 285 286 286 286 286 288 288 289 291 292
256 256 255 256 257 257 257 257 256 255 255 255 255 255 255 254 254 254 254 253 253 254 255 256 260 264 263 264 266 268 268 268 268 268 268 269 269 267 264 260 259 259 259 259 259 259 259 259 260 260 261 262 263 263 264 264 265 265 265 266 267 267 267 267 268 268 269 269 270 271 273 276 280 285 285 285 286 286 286 287 288 289 290 292 293
256 256 256 255 256 256 255 255 255 255 255 255 255 255 254 255 254 253 253 253 252 253 254 255 255 258 263 264 266 266 267 267 267 267 267 267 267 265 258 258 258 258 258 258 258 259 259 259 260 260 261 262 263 263 264 264 265 265 266 266 266 266 266 267 267 268 269 269 269 270 272 273 276 280 285 286 286 286 287 288 289 290 292 293 294
257 257 256 256 255 255 254 254 254 255 256 254 254 254 254 253 253 253 252 252 252 253 254 253 254 255 258 259 261 263 266 266 265 265 265 265 265 260 258 258 257 257 257 257 258 258 258 259 260 260 261 262 262 263 264 264 265 265 267 266 267 266 266 267 268 268 268 268 268 268 269 270 272 275 281 285 286 287 288 289 290 290 292 292 292
257 256 255 254 254 253 253 254 255 255 253 253 254 253 252 252 252 252 251 251 252 252 252 252 254 253 254 255 259 259 260 262 262 261 261 261 258 257 257 257 257 257 257 257 258 258 258 259 259 260 260 262 262 263 264 264 265 265 265 266 266 267 269 268 267 267 267 267 267 267 268 269 270 273 278 285 287 288 289 289 290 291 291 292 293
256 256 256 256 255 254 254 253 253 252 252 252 252 252 252 251 251 251 251 250 250 251 251 251 252 253 253 254 253 258 258 255 254 254 255 255 256 256 256 256 256 257 257 257 257 258 258 258 259 260 261 262 263 263 263 264 265 265 266 266 266 266 266 266 266 266 266 266 266 267 267 268 269 271 275 282 288 289 290 290 290 291 291 292 293
256 256 256 257 255 254 252 252 252 251 251 251 251 251 251 251 250 250 250 250 250 250 251 251 251 251 252 251 254 259 255 253 252 253 253 254 254 254 255 255 255 255 256 256 257 257 258 258 259 260 261 262 262 263 263 265 265 266 266 266 266 266 266 266 265 265 265 265 265 266 267 267 268 270 274 280 288 290 290 290 290 290 291 292 294
257 257 256 257 254 253 251 251 251 251 251 251 250 250 250 250 250 250 249 249 250 250 250 250 250 251 251 255 261 261 254 251 251 252 252 253 253 253 254 254 254 254 255 256 256 257 258 258 259 260 261 262 262 263 263 265 265 266 265 266 266 266 266 266 265 265 265 265 265 265 266 267 269 270 272 278 284 289 290 290 291 291 290 291 293
256 255 255 254 252 251 250 250 250 249 250 250 250 250 249 249 249 249 249 249 249 250 250 249 250 250 252 258 259 260 254 251 251 251 252 252 252 253 253 254 254 254 254 255 256 257 257 258 259 260 260 261 262 262 263 264 265 265 266 266 266 266 266 265 265 265 265 265 265 265 266 267 269 271 273 277 282 287 289 290 291 291 291 291 291
254 254 252 251 251 251 250 250 249 249 249 249 249 249 249 248 248 249 248 249 249 249 249 249 249 250 250 255 256 256 251 250 250 250 251 251 252 252 253 253 254 254 254 255 256 257 258 258 259 260 260 261 262 262 262 264 265 266 266 266 266 266 266 265 265 265 265 265 265 265 266 267 268 270 272 275 280 285 288 289 290 291 291 290 290
252 251 251 250 250 250 249 249 249 249 249 249 248 248 247 247 248 247 248 247 248 248 249 248 249 249 249 250 250 250 250 250 250 250 250 251 251 252 252 253 253 253 254 255 256 257 258 258 259 259 261 262 263 263 263 264 266 266 266 266 266 266 266 265 265 265 265 264 264 265 265 266 268 269 271 275 278 283 287 288 289 290 290 291 290
251 250 249 249 249 248 248 248 248 248 248 247 247 247 247 247 248 248 248 248 248 248 249 248 248 248 248 248 249 249 249 249 249 250 250 250 251 251 252 252 252 252 253 254 256 256 257 258 258 259 260 261 262 263 263 264 267 267 267 267 267 266 266 265 265 266 265 265 264 264 265 266 267 268 270 274 278 282 286 286 288 288 289 290 290
250 249 249 249 248 248 247 247 247 247 247 247 247 247 247 247 246 247 248 248 248 248 248 248 248 247 248 248 248 248 248 248 249 249 250 250 250 251 251 252 252 252 253 254 255 256 257 257 258 259 260 261 262 263 263 264 267 267 267 268 268 268 267 267 267 266 265 265 264 264 265 265 266 268 271 273 278 281 285 286 287 288 289 289 290
250 250 249 249 248 247 247 246 246 246 247 247 247 247 248 247 247 247 247 247 248 248 248 248 247 247 247 247 248 248 248 248 249 249 249 249 249 250 251 251 251 252 253 254 254 256 256 257 258 259 260 261 262 262 263 264 267 268 268 268 268 268 268 267 267 266 265 265 265 264 264 265 265 267 269 271 276 281 285 286 286 286 288 289 289
251 250 250 248 248 247 247 247 247 246 247 247 247 247 247 247 247 247 247 247 247 248 248 248 248 248 247 247 248 248 248 248 249 249 250 250 250 250 250 250 250 251 252 253 254 255 255 256 257 258 260 261 262 262 263 264 267 268 268 268 269 269 268 267 267 266 266 266 265 265 265 264 265 266 267 269 271 275 282 286 286 287 287 288 289
250 250 249 249 248 248 248 248 247 248 247 247 247 246 247 246 246 246 247 247 248 248 249 248 248 248 247 247 248 248 248 248 248 249 249 250 250 250 250 250 250 250 251 252 253 254 254 256 257 258 259 260 262 262 263 264 267 268 268 268 269 270 269 268 267 266 266 265 265 265 265 265 264 265 266 267 268 270 275 282 286 286 286 286 287
250 249 249 248 248 247 247 248 247 247 246 246 247 247 246 246 247 248 249 249 250 250 250 249 248 248 247 247 247 247 248 248 248 249 249 250 250 250 250 249 249 249 250 251 252 253 254 255 256 258 259 260 262 262 263 266 268 268 268 268 269 269 269 268 267 266 265 265 265 265 264 264 264 264 265 265 266 267 270 271 276 283 286 286 286
249 249 249 248 247 247 246 246 246 246 246 246 246 247 247 247 248 248 249 249 249 249 248 249 248 247 247 247 247 247 248 248 248 249 249 249 249 249 249 249 249 249 250 251 252 252 254 255 256 257 259 261 262 263 264 266 268 269 269 269 269 269 269 268 267 266 266 266 265 265 264 264 263 263 264 264 265 265 267 269 270 272 278 284 286
Wind_Speed
11 10 9 8 9 8 8 7 7 6 6 7 7 7 6 7 7 6 6 7 6 7 7 8 8 8 9 9 9 10 11 11 10 11 12 13 14 15 15 15 17 17 17 19 18 19 20 21 21 21 19 19 19 18 17 17 17 18 18 18 19 18 19 20 22 24 21 19 19 18 20 21 20 20 22 21 22 20 19 17 18 14 13 11 12
11 10 8 8 9 8 8 6 6 6 6 6 7 6 6 6 6 6 7 7 6 7 8 7 7 8 9 10 10 11 11 12 12 11 12 13 14 12 13 15 16 18 18 19 18 16 17 20 21 21 20 21 21 20 18 17 18 18 19 18 17 17 16 15 15 16 18 13 15 16 17 18 19 20 20 22 25 21 21 18 15 13 10 10 11
10 9 9 8 9 7 7 7 6 7 7 6 6 6 5 6 5 6 6 6 6 6 7 7 8 9 9 10 10 11 11 11 11 11 12 13 14 14 13 15 17 18 19 19 19 17 19 20 21 19 16 19 20 18 18 19 18 19 21 18 19 19 16 19 18 20 21 20 18 20 19 17 17 20 20 19 21 19 18 18 15 11 10 11 11
10 10 9 8 8 8 7 7 7 6 6 5 6 5 5 5 5 5 6 5 6 7 7 8 8 9 9 10 10 10 11 11 11 11 12 13 13 14 14 15 16 17 19 19 19 18 19 20 19 18 19 20 20 18 18 18 17 17 19 19 19 20 18 17 18 18 19 21 19 20 20 18 19 20 20 20 19 16 16 12 14 13 11 11 12
11 10 9 9 9 8 8 7 7 6 6 5 5 5 5 4 4 5 5 6 6 6 7 7 7 8 8 9 10 10 11 11 12 12 12 12 13 14 15 15 16 17 18 18 18 19 19 19 19 19 19 20 20 18 17 19 17 17 18 17 17 17 15 15 18 18 19 21 18 15 17 17 16 18 21 19 16 18 15 14 13 14 12 11 11
10 10 9 9 9 9 8 7 7 7 6 5 5 5 4 4 4 4 4 6 6 7 7 6 6 8 8 9 10 11 11 11 12 12 12 12 13 13 14 15 16 18 18 19 18 18 18 19 19 18 19 19 19 18 18 20 18 18 19 18 18 17 17 18 17 19 20 19 17 15 14 14 15 17 18 15 18 15 13 12 13 12 12 12 12
11 10 9 9 8 9 8 8 6 6 6 5 4 3 4 3 4 5 5 6 6 7 7 7 7 8 9 9 10 10 11 11 11 12 12 13 14 14 14 16 18 18 18 19 19 20 20 19 19 20 20 19 20 20 19 19 17 20 19 19 18 18 19 18 17 19 19 19 18 18 17 16 16 18 17 15 19 13 12 11 12 10 9 11 12
11 10 10 9 8 9 8 7 6 6 4 4 3 3 3 3 4 4 5 6 6 7 7 7 8 8 9 9 10 10 10 11 11 12 11 12 13 15 16 17 18 19 20 20 21 20 21 21 20 21 21 20 20 20 19 19 17 18 17 16 17 18 18 16 17 17 18 16 13 14 14 14 14 16 15 14 12 12 11 9 13 12 10 8 10
11 11 10 9 9 8 7 6 6 5 5 4 4 4 4 4 4 4 5 6 5 6 7 7 8 9 9 9 10 9 9 9 8 8 11 14 15 16 17 17 18 19 19 19 19 19 20 20 21 21 23 26 30 28 26 23 17 16 17 16 17 17 17 16 16 16 17 16 16 14 15 15 14 15 13 12 11 12 8 7 10 11 11 10 11
12 11 10 9 8 8 7 6 6 5 5 4 4 4 3 3 4 5 5 6 6 6 7 7 8 9 9 9 9 8 9 8 11 18 19 16 17 17 16 18 18 19 20 21 21 20 20 20 20 29 31 32 31 32 32 32 31 25 20 19 18 17 17 17 17 17 17 17 16 14 13 14 14 14 13 12 11 7 7 5 7 8 10 12 12
10 10 10 9 8 8 7 7 6 6 5 4 4 3 4 4 4 5 5 5 6 6 6 7 8 7 8 9 9 9 9 9 17 20 22 24 19 18 18 18 18 19 19 20 21 21 20 20 20 23 26 27 26 32 31 32 32 32 33 33 29 23 17 20 18 18 17 17 15 14 14 15 16 14 12 10 10 9 8 6 5 7 9 11 14
11 9 9 9 8 8 7 7 6 5 5 5 4 4 4 4 5 5 5 5 5 5 6 7 7 7 7 8 10 10 11 14 20 21 23 24 23 18 18 17 17 18 19 19 20 19 20 19 19 17 18 21 21 21 25 30 31 31 33 31 31 32 31 24 20 20 18 17 17 16 14 14 14 14 13 11 11 10 10 7 6 6 9 10 9
10 9 9 9 9 8 7 7 6 5 5 5 4 4 4 5 5 5 5 5 5 5 6 6 7 7 8 10 11 11 11 16 21 23 24 25 26 23 16 17 17 18 19 20 20 20 18 19 18 17 16 25 22 20 21 21 26 32 32 33 32 34 34 34 34 26 20 20 19 20 17 15 15 15 13 12 10 10 8 8 6 6 5 9 10
9 9 9 8 8 8 7 6 6 6 5 4 4 4 4 5 4 4 4 4 4 5 5 6 6 7 8 10 11 11 12 16 22 24 25 26 26 23 17 18 17 18 19 18 18 19 20 19 19 19 18 19 18 19 19 19 20 20 21 20 21 25 29 33 34 35 32 24 21 22 22 19 18 15 15 13 8 7 7 7 6 8 8 10 8
9 9 9 8 8 7 7 6 6 6 5 5 5 4 5 4 4 4 4 4 4 4 5 5 7 8 9 9 10 11 11 19 24 26 26 26 26 25 17 17 17 17 17 19 20 19 20 19 20 20 20 19 18 21 19 17 17 16 17 19 20 22 21 22 22 20 19 19 20 23 23 23 21 19 17 14 11 8 8 7 7 9 9 11 12
9 9 9 8 8 7 7 7 6 6 5 5 5 4 5 4 4 3 3 3 3 4 5 6 7 9 9 10 10 12 12 20 24 25 26 26 29 19 16 16 16 16 18 20 20 19 20 20 20 20 21 21 24 30 27 21 18 19 20 19 18 18 19 22 27 27 24 20 18 18 16 20 23 19 17 16 12 10 8 5 5 6 7 8 11
10 9 9 9 8 8 7 7 6 6 6 5 5 5 4 4 4 3 3 3 3 4 5 6 7 9 11 11 11 12 12 18 23 25 26 28 23 15 15 15 16 18 18 18 19 19 19 20 20 19 20 20 25 29 30 28 21 21 20 20 18 16 17 15 25 31 31 32 33 33 35 36 36 34 30 30 18 12 8 8 8 6 7 10 11
10 10 9 9 8 7 7 7 6 6 6 5 4 4 3 3 3 2 2 2 4 5 5 6 7 7 9 11 10 13 15 19 23 25 26 26 24 17 16 15 18 17 15 19 18 19 21 29 26 22 22 22 27 30 30 26 21 21 21 21 21 18 18 16 14 18 25 27 28 31 33 33 34 35 32 30 28 18 11 11 7 4 7 8 11
11 10 10 9 8 7 6 6 6 6 5 5 4 4 3 4 3 2 1 2 4 4 5 6 7 8 9 11 16 17 15 16 23 24 25 25 22 16 16 15 14 16 18 19 19 17 21 24 31 28 25 25 32 31 31 27 20 18 19 18 20 18 17 17 17 15 13 13 15 17 20 25 23 21 20 26 24 18 13 9 5 6 9 8 9
10 9 9 9 8 7 6 6 6 5 5 4 4 4 3 3 2 1 2 2 3 4 5 6 9 9 10 11 12 13 15 16 18 25 25 27 27 18 16 15 16 17 16 16 16 16 16 17 20 26 29 30 30 32 31 31 23 20 19 19 19 19 15 16 16 14 13 13 14 14 15 12 11 11 12 13 14 14 12 9 9 8 9 9 8
10 10 9 8 8 7 6 6 5 5 4 5 4 3 2 2 1 0 1 2 3 4 6 6 8 10 10 11 11 12 13 16 18 24 26 26 27 24 15 16 16 17 16 17 16 18 17 17 17 23 29 30 30 32 32 32 30 21 19 18 18 19 20 16 18 22 15 14 15 15 14 11 11 10 10 9 9 9 10 11 12 11 10 10 10
9 9 9 8 8 7 6 6 5 4 4 4 4 3 2 2 1 1 1 2 4 5 6 7 8 9 10 11 11 12 14 19 17 22 26 27 27 29 20 16 19 19 21 17 18 17 18 19 17 22 30 31 31 32 33 32 32 22 21 28 31 32 23 18 14 14 13 13 12 12 11 12 10 10 10 10 10 10 10 10 11 12 12 12 11
8 8 8 8 7 6 7 7 5 4 4 4 4 2 2 2 1 1 1 2 3 7 7 8 9 11 10 9 9 11 12 13 20 20 24 26 28 27 28 24 30 20 17 19 18 18 18 18 20 28 32 34 35 36 36 37 31 23 29 30 30 31 27 17 14 13 14 14 14 13 13 12 11 11 10 11 11 11 10 11 11 12 12 12 14
8 8 8 8 8 7 7 7 6 4 4 3 3 3 1 1 2 2 2 2 3 6 7 8 10 10 10 10 10 10 11 12 17 22 21 27 26 28 28 29 29 20 18 16 17 18 18 19 22 34 33 31 32 33 32 30 23 30 29 30 30 28 19 17 15 14 15 15 15 14 14 12 11 10 10 10 9 9 11 11 12 14 13 13 14
9 9 9 10 9 8 7 6 5 4 3 3 3 3 1 1 3 3 3 2 3 5 6 8 9 8 10 11 11 11 11 13 13 16 25 24 27 27 28 30 28 28 19 15 16 16 22 31 32 29 29 29 31 30 24 22 23 24 26 26 25 14 15 15 15 14 14 15 15 14 13 12 12 12 12 11 9 9 9 10 11 12 12 13 12
11 10 8 8 9 8 9 7 5 3 2 2 2 2 2 2 3 3 2 2 3 5 8 8 7 9 10 10 11 12 13 13 11 14 16 20 21 25 28 27 27 27 24 19 25 28 27 26 28 27 24 22 19 16 14 14 20 23 24 25 15 14 14 14 14 14 16 15 14 14 13 11 9 8 10 10 9 10 10 10 9 9 10 10 11
11 9 10 9 7 7 7 6 5 4 2 2 2 2 2 2 3 3 1 2 4 6 7 7 8 9 10 11 12 12 12 11 12 13 13 14 14 17 18 18 22 22 17 15 18 16 19 19 18 23 20 25 23 20 18 17 14 13 11 10 10 12 14 14 15 15 16 15 15 13 11 9 8 9 10 10 11 11 9 9 9 9 8 9 10
10 10 10 7 6 6 6 7 6 4 3 3 3 3 2 3 3 2 0 2 4 6 7 8 8 9 9 10 11 11 12 11 12 14 16 16 16 16 15 16 16 15 15 16 17 17 16 17 18 14 14 13 13 12 12 11 11 11 11 10 10 12 16 20 21 13 14 13 13 11 10 10 11 12 11 11 12 11 10 9 9 9 9 9 10
9 10 8 6 6 5 5 5 3 4 3 3 2 2 2 2 3 1 3 3 5 6 6 7 7 8 8 10 11 11 11 11 13 19 19 23 20 18 17 17 16 15 19 25 17 14 12 13 12 13 13 14 13 13 13 13 12 12 13 12 11 12 12 13 11 11 12 10 13 13 13 10 11 12 12 12 11 11 10 10 9 9 9 10 13
9 8 6 6 7 6 6 5 4 4 3 2 2 2 4 5 4 2 2 5 8 10 9 6 8 8 7 8 8 10 12 14 23 26 25 26 27 27 25 26 24 21 25 27 17 11 12 12 13 13 14 14 15 14 15 14 14 14 13 13 12 11 12 12 12 13 12 12 12 12 12 11 13 12 12 13 11 10 10 10 9 9 10 12 13
7 6 6 5 6 6 6 6 4 4 3 3 2 1 1 3 0 5 5 5 8 9 9 10 12 12 10 8 9 16 19 22 23 24 25 25 26 27 26 26 26 26 26 18 11 11 12 12 13 13 13 13 13 14 14 14 14 14 13 12 10 12 12 11 11 12 12 12 13 12 12 13 15 14 14 13 12 11 8 8 9 10 12 13 13
9 8 7 7 8 6 5 5 5 4 4 3 1 2 3 2 1 5 4 6 8 7 7 11 13 13 14 14 13 9 16 21 23 23 24 25 25 27 26 25 24 26 26 20 11 12 12 12 13 13 14 14 14 15 14 14 14 14 14 13 13 11 11 11 12 12 12 12 12 13 12 12 13 13 11 11 10 11 10 9 10 12 13 12 13
10 9 7 8 7 6 6 5 4 4 4 3 2 3 4 4 2 1 4 5 3 2 8 13 16 15 15 16 18 17 19 21 23 23 24 24 25 25 25 23 22 24 24 15 13 12 12 12 13 13 14 14 14 14 13 14 14 14 13 14 14 14 13 13 15 12 11 11 12 12 13 11 11 11 11 11 12 14 11 11 11 12 11 12 12
9 8 8 8 8 7 6 5 5 4 4 3 3 4 4 3 2 2 5 8 9 5 4 13 17 19 17 18 20 20 21 22 22 23 23 24 24 24 22 16 17 19 17 12 12 12 12 12 13 13 14 14 14 14 14 15 14 14 14 13 14 14 14 13 12 11 11 11 11 12 13 13 11 11 12 13 13 12 12 11 11 11 11 12 12
7 7 10 8 7 7 6 5 5 5 4 4 4 5 5 3 1 1 1 2 3 6 8 9 14 16 13 13 18 20 21 22 21 21 22 23 23 23 19 11 14 14 14 13 13 11 12 13 13 14 14 14 14 14 14 14 14 14 15 16 15 14 14 13 12 12 11 11 11 12 12 13 14 12 11 12 12 13 13 12 12 11 12 12 12
9 8 8 8 7 6 6 6 5 5 5 4 4 5 5 3 1 1 0 1 3 5 5 4 5 10 14 15 19 19 20 23 21 21 21 23 22 21 13 12 13 14 14 15 14 13 12 12 13 13 13 13 13 13 13 14 14 15 15 15 16 15 15 14 13 13 13 12 12 13 13 13 13 14 12 12 14 13 12 12 12 11 12 12 12
9 8 7 7 7 7 6 6 5 6 6 6 5 5 4 3 2 1 1 2 3 3 4 6 6 6 6 7 16 19 21 21 20 18 18 19 21 13 10 12 11 12 12 13 13 13 13 12 13 12 13 14 13 14 14 14 15 15 15 13 13 14 13 12 14 15 14 13 12 12 12 13 13 14 14 13 11 11 12 11 11 10 10 13 13
7 8 7 8 8 8 7 7 7 9 6 5 5 5 4 3 2 1 1 1 2 2 2 2 4 2 6 7 15 9 11 17 18 15 15 16 12 10 10 11 11 11 12 12 13 12 13 12 12 13 13 13 13 14 13 12 12 12 11 12 12 12 20 17 16 14 13 12 12 12 12 12 13 14 15 13 11 11 11 11 10 9 9 15 13
7 12 17 17 11 7 7 7 7 6 5 5 4 4 4 3 2 1 1 1 1 1 1 2 2 2 3 6 7 8 9 8 8 8 9 9 8 8 8 9 10 11 11 11 12 12 12 13 14 13 13 13 13 14 14 14 14 14 15 13 13 12 14 13 13 12 12 12 12 12 12 12 13 14 14 13 11 10 10 9 9 8 7 11 13
9 10 12 16 9 8 6 6 6 5 4 5 5 4 4 3 2 2 1 1 0 0 1 1 2 2 4 5 6 7 6 6 6 7 8 9 9 8 7 9 10 10 11 12 12 12 12 13 13 13 13 14 14 15 14 14 14 17 17 16 14 13 12 11 11 12 13 13 13 13 13 13 13 14 14 13 10 9 8 8 8 7 6 9 13
9 10 11 11 10 8 6 6 5 5 5 4 5 4 3 3 2 2 1 0 0 0 1 1 2 3 4 8 14 12 3 4 6 6 7 8 8 8 8 8 9 10 10 11 11 12 12 12 13 13 13 13 14 14 14 14 14 14 15 14 15 16 15 14 14 13 13 13 13 13 13 13 13 12 12 11 11 7 6 7 7 6 5 7 9
10 11 10 9 9 7 7 5 4 5 5 5 5 4 3 3 2 1 1 0 0 1 1 2 2 2 7 13 13 14 6 3 4 7 7 7 7 7 8 8 7 8 9 10 11 11 12 12 13 13 13 14 14 14 14 14 15 14 14 12 13 17 18 17 17 15 15 13 13 13 13 13 13 13 12 12 10 6 5 6 7 7 5 6 5
10 8 8 7 7 6 6 6 5 5 5 5 4 4 3 3 2 1 1 1 0 0 1 2 2 3 4 9 12 12 3 3 5 6 6 6 7 7 7 8 8 9 9 10 10 10 11 11 12 13 12 13 14 14 14 13 14 16 16 14 13 15 18 20 16 16 16 15 14 15 15 13 12 11 10 9 9 6 4 6 6 6 6 5 5
8 7 7 7 7 6 5 5 5 4 5 5 5 4 3 2 1 1 1 0 0 0 0 1 2 3 4 6 7 5 3 4 4 5 6 7 7 7 8 8 9 9 9 9 9 10 11 11 12 12 12 13 13 14 14 13 14 18 18 17 14 14 14 17 17 16 16 17 16 15 14 13 12 10 9 8 8 7 3 4 6 7 7 7 6
8 8 8 8 6 6 5 4 5 5 6 5 3 3 3 1 1 1 1 0 0 0 0 1 2 2 3 3 4 5 5 5 6 6 6 6 7 7 8 9 9 10 10 10 10 11 11 11 12 12 14 13 13 14 13 12 14 16 13 15 14 15 15 15 17 14 14 15 16 15 14 13 12 10 9 8 8 8 4 4 4 7 7 7 7
7 8 7 7 6 5 5 5 5 5 5 4 4 4 2 2 1 1 1 1 0 0 0 0 1 1 2 3 3 4 5 5 5 5 6 6 6 7 8 8 9 9 9 9 10 10 11 11 12 12 13 13 14 14 13 13 14 16 16 14 13 13 14 15 14 16 16 14 15 14 14 13 12 11 12 11 9 8 6 3 3 4 6 7 8
7 7 6 6 7 6 5 6 5 5 4 4 3 3 2 2 2 1 1 1 0 0 0 0 1 1 2 2 3 4 5 5 5 5 5 6 6 7 7 8 9 8 9 9 9 10 11 11 11 12 13 13 14 14 13 12 13 16 15 16 16 17 16 16 15 14 15 16 14 13 13 13 13 12 14 12 10 8 6 3 4 5 4 6 6
7 6 6 6 6 7 6 5 6 5 4 4 3 2 2 2 2 1 1 1 1 0 0 0 0 1 2 2 3 4 4 5 5 5 5 5 6 7 7 7 8 9 9 10 9 10 10 10 11 12 12 14 14 14 13 13 11 15 15 17 18 22 25 26 17 18 16 17 18 15 14 13 12 12 12 12 10 10 7 4 3 3 4 5 6
6 7 7 6 5 6 6 6 4 5 4 4 4 3 2 2 1 1 1 1 1 0 0 0 1 1 1 2 3 4 4 5 5 5 5 5 6 6 7 7 9 8 8 9 9 10 10 10 11 11 11 12 12 13 13 12 13 16 18 17 27 42 38 35 23 22 25 15 15 16 15 13 14 13 13 12 12 10 9 7 1 4 4 3 6
6 6 6 7 5 5 3 3 5 4 4 3 3 3 2 2 1 1 1 1 0 0 0 0 1 1 2 3 3 4 4 4 5 5 5 6 6 7 7 7 8 8 8 9 9 9 10 10 10 10 11 11 11 12 12 10 13 17 18 22 37 40 40 39 33 40 29 17 16 14 16 14 13 12 11 11 12 12 10 9 8 4 2 6 5
6 6 5 6 6 5 5 5 4 4 3 3 3 3 3 2 1 1 1 1 0 0 0 1 1 1 2 3 3 4 4 4 4 5 6 6 6 7 7 8 8 8 9 8 9 9 10 10 10 11 11 11 12 12 12 12 15 17 24 35 37 38 40 37 27 34 39 26 15 17 15 14 13 14 14 14 13 13 13 12 9 8 6 2 3
Wind_Direction
161 162 160 168 169 175 177 177 189 198 208 221 232 241 247 250 256 264 276 272 279 283 283 284 286 284 285 284 285 285 284 283 282 282 280 280 278 277 277 273 270 270 271 271 266 265 266 263 260 261 262 261 261 263 260 259 259 256 256 255 253 254 255 256 260 269 272 265 268 267 268 267 270 271 273 272 272 268 264 262 264 261 260 263 265
166 158 160 168 172 176 177 178 187 198 208 219 232 238 247 252 258 270 269 276 281 282 281 282 279 283 286 285 284 284 284 285 285 282 280 281 282 283 282 278 274 273 273 270 270 268 268 265 264 267 267 263 261 262 261 261 258 256 254 255 257 255 253 261 266 273 278 278 274 276 276 271 272 273 273 272 267 261 261 261 260 262 262 264 266
159 157 162 166 172 172 175 182 187 199 210 224 229 238 248 256 261 267 275 282 283 278 282 283 283 287 288 287 288 287 286 285 285 283 283 284 283 281 279 280 279 278 276 274 274 273 269 267 269 270 269 267 263 261 263 263 259 256 257 255 254 256 260 258 263 268 272 274 272 272 269 275 273 275 274 265 262 265 267 263 263 260 254 256 261
156 156 160 165 167 172 178 182 189 199 211 221 228 240 250 260 268 270 278 281 280 284 284 286 290 289 290 288 286 287 286 285 285 284 284 284 283 283 282 281 280 277 278 278 277 275 272 272 272 272 270 268 267 267 265 262 261 260 259 258 262 263 258 259 259 263 267 266 262 259 262 261 263 266 269 265 259 259 259 266 268 260 255 253 254
156 159 163 164 171 176 180 182 190 200 209 219 231 245 254 263 266 274 278 280 285 290 288 289 288 288 287 288 288 286 285 286 285 284 284 283 282 284 284 283 280 278 277 276 277 275 274 273 274 273 272 270 269 268 268 267 265 262 260 261 260 261 263 261 260 261 268 268 271 266 266 263 262 265 265 264 263 255 255 259 263 266 259 254 254
157 158 163 167 171 178 178 183 191 198 204 219 231 240 251 261 268 278 280 282 287 282 285 287 285 287 284 284 284 283 282 284 285 286 286 284 282 282 283 282 282 281 276 274 273 271 270 270 270 271 271 269 270 270 268 266 267 265 264 264 263 265 263 262 262 267 266 261 261 266 264 268 270 264 260 252 258 262 264 265 265 260 261 266 260
158 159 164 169 171 178 178 183 184 189 197 209 217 232 245 259 270 274 280 280 279 282 281 284 283 282 281 281 280 282 284 284 285 284 285 287 287 284 284 287 286 281 273 271 270 269 265 262 263 264 265 266 267 265 267 267 263 263 262 263 263 263 263 264 265 264 266 274 277 274 274 272 268 273 268 252 250 253 267 275 271 260 246 253 265
157 161 164 172 176 175 177 177 178 185 188 196 214 234 247 254 261 268 271 272 271 276 282 283 285 280 281 280 281 283 286 287 287 287 286 288 290 291 288 284 279 275 273 271 270 267 265 263 260 262 260 264 264 264 263 263 263 264 262 261 262 262 263 265 266 266 266 264 260 258 244 248 258 257 266 261 253 254 250 259 270 272 262 250 253
159 163 169 173 174 170 166 170 174 175 185 193 210 217 230 251 255 263 264 265 271 273 276 280 280 279 279 280 285 286 286 284 284 285 295 295 290 287 287 286 286 285 283 281 279 276 274 269 264 259 256 256 262 261 259 259 262 262 261 260 260 261 263 263 265 266 266 265 264 263 270 272 264 262 255 246 241 251 260 268 273 274 279 275 266
159 165 170 172 164 163 162 162 167 170 179 193 200 208 224 242 251 256 261 263 268 275 276 277 275 279 284 287 289 286 283 283 281 290 291 291 293 293 291 289 287 285 285 284 281 278 276 276 275 273 266 258 260 264 263 261 261 260 261 262 259 260 261 261 262 264 270 273 274 275 274 272 276 268 255 255 262 268 271 267 277 286 281 274 271
161 166 167 162 158 157 162 165 167 176 181 185 193 204 227 236 250 256 258 264 268 273 271 272 279 282 288 291 292 289 285 284 287 295 296 296 296 294 292 288 285 283 283 283 284 283 281 278 277 275 275 272 266 261 262 263 262 263 263 263 263 263 264 265 261 262 264 266 272 273 268 270 271 279 276 272 266 269 272 288 299 302 294 293 294
159 163 156 155 157 159 162 162 168 177 176 190 192 202 224 238 246 252 259 264 266 268 273 274 283 291 290 293 292 293 291 287 295 298 299 299 297 295 293 291 289 285 284 282 282 282 282 281 278 276 274 272 269 269 261 259 258 262 267 266 265 264 261 261 266 267 265 268 268 264 265 264 268 272 274 268 267 272 274 280 284 291 297 295 288
157 156 156 156 158 160 160 164 169 175 185 180 189 206 220 235 242 246 251 259 265 267 275 286 288 294 295 299 297 294 291 291 297 302 302 302 301 300 294 289 287 286 287 287 286 285 285 283 282 277 276 276 274 271 268 265 266 261 264 267 265 265 267 264 262 262 267 264 263 265 260 263 264 265 274 271 271 275 283 282 286 284 270 280 280
155 154 154 157 159 159 162 164 173 176 175 178 193 209 217 231 238 249 249 252 256 271 277 283 288 295 299 297 296 294 293 295 303 305 307 306 305 302 295 295 293 291 289 287 286 284 282 282 282 279 277 277 275 274 273 268 266 268 262 261 264 261 265 264 264 264 263 263 262 261 263 260 258 261 269 283 264 259 272 279 290 288 281 271 280
154 156 155 159 158 161 164 168 172 174 175 182 197 209 220 230 239 243 240 247 257 272 284 289 292 291 292 295 295 295 291 300 307 308 309 308 306 306 302 298 292 288 286 286 286 283 282 283 283 283 282 280 277 276 275 269 264 259 255 255 256 254 254 258 259 259 257 259 262 258 256 257 258 255 257 261 264 267 272 271 272 276 281 287 283
154 154 156 162 163 166 165 168 171 173 174 185 194 212 215 224 234 245 249 256 267 275 282 289 291 297 297 295 295 296 294 302 307 307 307 307 308 306 298 291 289 291 291 291 287 285 282 280 279 278 277 276 275 276 277 279 277 271 264 256 247 244 246 250 253 260 257 257 262 271 275 270 258 248 250 253 259 264 267 261 259 265 278 279 281
157 159 161 162 165 164 167 166 167 169 179 183 194 209 213 226 237 233 251 273 281 288 288 293 304 306 306 307 297 292 293 298 303 306 308 310 309 301 298 297 295 293 290 290 290 285 282 279 279 280 278 277 276 277 277 278 278 277 275 271 265 254 256 251 257 263 259 259 260 262 264 263 265 260 250 247 249 249 246 245 249 257 273 286 292
160 160 161 162 164 161 165 163 164 173 176 183 193 207 213 234 224 234 246 293 295 292 295 294 297 302 301 292 285 293 296 297 303 309 311 308 308 307 304 300 296 288 286 290 290 288 282 280 279 278 278 277 277 276 276 275 272 271 270 272 269 258 262 253 258 263 261 260 259 259 260 262 260 255 249 245 245 239 232 239 243 253 264 273 284
161 160 158 154 154 152 157 162 168 171 174 182 193 211 215 218 227 231 271 280 285 292 302 299 303 303 289 281 285 293 291 296 303 307 309 312 313 309 303 295 286 289 286 283 280 280 284 282 279 278 274 273 275 276 276 275 274 275 280 282 281 275 271 260 262 260 261 263 256 252 252 250 251 246 240 240 240 236 234 235 232 234 261 267 276
151 142 140 145 147 151 156 163 168 168 169 182 200 212 213 222 216 272 305 291 301 309 311 312 308 298 297 296 299 299 300 299 301 306 310 312 312 310 306 301 297 294 293 288 284 280 280 284 287 284 282 281 281 280 278 276 274 274 273 273 276 276 278 265 253 252 259 262 271 275 273 265 250 238 235 233 228 226 230 221 224 231 245 254 255
134 136 137 139 143 149 150 162 170 168 170 186 193 202 209 218 243 331 309 312 315 312 305 297 308 315 310 307 301 301 299 303 306 309 312 314 316 318 312 309 307 305 303 303 299 300 299 296 295 293 291 289 287 285 283 279 277 274 272 274 273 276 277 272 263 255 254 257 260 267 269 265 257 242 229 224 220 218 221 218 217 219 224 235 247
130 133 138 138 138 142 148 156 163 160 176 192 195 187 185 200 234 76 347 337 324 314 310 318 319 314 313 307 303 302 303 304 307 310 314 315 313 314 315 313 315 312 308 303 303 302 300 299 298 295 293 290 287 285 282 281 279 276 271 271 273 275 277 276 266 259 251 253 253 254 256 255 253 243 234 231 219 215 213 212 213 220 223 224 233
129 132 129 130 135 143 152 158 156 157 178 190 176 174 184 174 154 132 54 351 325 331 330 329 324 318 312 309 307 307 308 309 313 316 316 316 318 320 319 318 318 316 308 305 306 304 305 303 301 301 299 296 291 287 281 277 275 271 270 270 272 274 276 275 273 264 254 249 250 251 250 249 248 245 239 238 227 216 217 214 216 223 227 231 233
132 129 130 133 141 148 156 154 146 155 178 187 167 155 174 166 125 77 39 3 340 336 335 329 323 315 315 317 313 312 313 314 315 316 318 320 323 323 321 321 321 316 311 307 308 307 309 309 309 308 307 307 303 296 289 282 276 274 272 271 271 273 274 274 272 269 260 249 248 247 247 243 238 241 240 238 229 213 219 215 219 223 227 236 238
136 136 143 150 151 151 153 149 141 156 177 176 163 155 189 140 96 69 51 1 339 331 324 323 311 312 319 318 316 315 316 317 314 320 323 325 327 326 325 325 323 320 315 311 310 312 315 315 313 314 316 316 317 313 299 291 286 281 278 276 275 270 269 267 265 264 260 251 247 246 247 242 239 242 244 243 235 226 221 221 220 225 232 241 246
141 148 147 148 154 153 145 133 136 152 180 157 141 139 151 123 87 66 38 341 326 321 317 305 306 323 319 318 318 317 319 313 319 324 323 331 329 329 329 327 324 321 319 315 318 322 319 316 318 320 322 321 322 326 320 304 289 282 279 276 271 263 259 259 259 257 252 254 249 248 248 240 237 236 237 235 233 231 225 225 222 227 229 242 253
137 143 150 148 150 155 142 142 145 158 170 156 144 150 167 119 96 79 40 326 317 308 301 313 327 323 320 319 319 321 320 323 330 327 331 332 333 333 334 330 326 325 322 322 330 329 320 320 321 324 323 323 326 329 331 335 337 331 326 317 304 288 260 247 246 248 252 247 246 245 245 243 241 238 233 230 231 233 224 225 227 233 229 241 249
145 150 150 151 156 152 134 135 146 147 149 151 146 155 155 132 106 112 133 307 305 309 322 325 327 324 321 320 321 324 323 329 333 334 339 338 337 337 335 332 331 331 329 327 337 330 323 320 324 327 327 329 333 334 334 332 326 322 316 313 309 312 310 279 247 241 243 244 247 246 242 238 236 238 238 232 234 231 221 219 221 232 229 238 244
131 141 148 147 141 135 128 142 148 141 145 136 138 162 171 138 123 170 240 234 277 307 312 320 322 322 322 320 327 322 327 334 334 336 339 340 340 340 339 338 335 338 338 339 335 325 326 330 329 331 335 336 337 336 336 333 328 324 319 320 324 326 323 337 310 256 236 234 239 238 245 240 240 238 237 240 236 231 218 220 218 225 231 230 239
138 146 158 151 138 137 134 138 145 147 139 124 135 170 194 181 184 196 259 300 323 326 325 328 330 329 323 324 331 326 332 333 335 339 342 342 343 343 343 342 341 344 348 345 334 329 335 335 337 334 334 339 340 340 337 334 330 326 326 325 326 325 330 328 328 328 302 266 242 237 236 239 246 242 240 239 239 232 219 215 221 218 228 230 234
140 147 157 155 150 138 138 138 147 142 136 132 152 129 72 48 206 232 246 303 324 330 344 346 343 340 337 335 333 334 336 339 341 343 344 344 343 344 347 346 346 351 354 350 342 349 339 337 338 337 336 333 336 336 333 332 330 327 324 324 321 324 322 319 322 321 318 315 293 258 234 235 239 239 238 237 238 236 226 218 223 225 228 231 230
150 159 155 145 140 134 128 131 133 131 115 114 129 112 96 88 108 193 192 346 335 336 349 355 354 354 350 353 349 338 345 347 347 347 346 344 344 345 346 346 350 354 353 357 359 351 343 339 336 337 335 331 331 333 331 328 329 328 326 325 325 323 319 315 314 313 310 301 299 293 260 238 236 236 235 235 235 238 232 224 219 224 225 227 227
141 145 144 138 134 129 130 130 129 121 116 112 98 72 68 46 22 340 208 213 301 337 3 2 359 1 357 358 357 352 352 351 350 350 348 346 345 345 344 342 347 353 356 2 359 348 343 339 335 331 332 329 323 324 327 328 324 325 325 321 320 320 314 309 309 305 299 300 300 297 293 266 241 238 235 233 232 238 234 229 227 227 226 225 222
138 145 149 145 136 136 132 133 127 117 110 107 105 90 81 83 63 349 336 338 346 338 344 1 360 357 356 357 356 355 356 355 353 351 349 347 348 346 346 338 342 355 7 1 351 343 341 340 336 331 328 328 325 323 324 327 327 323 319 317 316 313 312 312 311 306 304 305 303 299 297 291 270 241 235 235 233 232 233 231 228 227 226 221 213
123 110 118 125 125 126 127 129 125 120 120 122 113 102 102 97 100 49 3 337 318 316 316 328 343 350 353 354 353 354 355 356 352 350 350 349 350 348 344 346 355 352 357 2 356 346 340 339 334 330 326 324 324 321 318 319 320 320 323 323 317 313 313 313 311 310 306 305 302 298 295 292 288 269 242 237 234 232 233 230 228 224 225 214 204
133 137 135 121 115 118 121 127 129 124 130 123 113 109 107 124 127 144 206 253 271 286 285 308 311 313 344 355 356 353 353 352 349 349 350 351 353 353 358 356 354 353 352 354 350 339 334 332 331 326 323 319 321 321 320 320 323 322 318 317 321 319 315 311 311 314 311 302 296 296 297 295 293 287 264 240 234 233 231 228 226 227 220 210 197
138 140 138 133 120 119 121 119 121 126 125 118 120 115 119 127 137 157 197 234 255 262 287 310 323 330 341 352 354 346 346 348 345 342 345 350 357 359 1 356 348 340 344 342 340 337 333 329 328 322 321 321 318 316 313 313 316 314 310 306 311 317 314 314 316 313 307 302 296 293 292 289 289 288 279 252 234 229 226 222 222 226 217 203 191
132 136 132 131 121 122 126 128 128 125 118 119 113 114 122 130 142 165 206 241 264 282 300 313 335 335 340 328 335 329 336 340 340 344 350 352 352 352 354 352 344 341 334 331 332 330 326 323 326 325 317 316 317 317 314 307 307 307 305 304 307 308 322 320 312 307 304 299 295 293 294 293 295 296 292 262 230 222 216 212 213 219 217 197 189
116 125 130 133 131 130 131 127 131 128 121 116 117 125 131 134 143 175 196 228 249 283 286 310 323 326 324 320 307 317 347 350 347 335 328 328 333 340 336 341 344 341 330 325 324 326 325 323 325 322 317 318 319 316 313 317 317 315 317 315 309 307 323 326 322 315 312 309 305 301 297 296 296 294 290 276 231 216 209 207 204 209 205 194 186
135 134 135 133 121 122 118 120 125 122 129 130 128 126 128 138 158 168 197 207 261 274 301 327 317 313 316 311 300 346 2 334 320 320 318 323 327 330 338 340 339 333 328 324 323 323 322 322 322 319 318 320 322 319 313 311 322 325 320 323 325 320 316 319 325 320 318 316 312 308 300 294 290 290 289 287 245 209 208 199 199 195 200 198 187
136 134 136 136 131 123 114 114 121 130 134 125 123 123 127 138 150 169 177 187 247 274 305 293 288 300 298 310 334 355 7 316 312 313 314 314 320 325 331 331 333 329 326 321 320 319 319 319 322 319 319 320 319 321 317 318 320 317 319 320 328 332 330 329 328 326 322 317 313 307 299 293 287 286 289 298 298 244 202 197 193 188 191 204 203
135 138 135 133 131 121 122 120 126 128 123 120 120 124 132 142 153 168 149 182 213 297 290 291 288 298 312 336 347 352 355 304 313 309 309 313 316 320 322 319 318 319 320 317 317 315 315 317 318 319 316 316 319 320 320 318 330 331 319 314 323 336 339 336 334 332 330 321 311 305 299 294 288 281 281 286 289 266 213 195 190 189 182 190 197
124 120 123 124 129 129 127 132 137 138 127 121 116 122 123 136 147 144 152 173 232 269 293 302 309 315 318 342 348 351 338 316 309 307 307 313 315 317 317 319 319 316 309 311 312 313 308 309 313 314 313 314 315 314 314 314 319 328 328 327 326 333 339 340 332 331 330 326 315 307 302 298 291 286 287 290 299 287 229 204 190 189 182 173 163
117 116 113 112 110 104 112 129 137 124 119 118 121 123 132 139 137 147 153 167 198 262 274 309 315 327 322 336 347 348 338 325 313 314 312 315 317 318 317 317 316 315 315 314 316 317 314 314 314 311 310 314 314 313 312 310 330 340 338 330 326 333 336 341 338 329 325 325 321 315 307 300 296 292 289 296 305 300 248 218 199 187 184 176 154
126 123 121 119 121 124 131 123 119 117 118 121 121 124 135 150 143 153 155 165 184 237 306 314 333 328 327 333 339 332 319 312 309 307 313 318 318 313 314 313 316 317 315 315 317 317 318 320 314 317 317 314 317 318 316 317 336 344 336 334 334 341 342 339 339 329 317 314 315 313 309 307 308 308 305 307 310 309 268 204 206 189 177 177 166
125 121 118 120 124 128 129 129 124 124 132 137 134 138 142 142 149 150 152 158 202 268 289 325 316 319 320 321 318 315 311 306 303 306 310 317 317 314 312 313 311 308 309 311 312 314 318 318 320 315 315 315 318 316 316 315 335 346 345 344 343 346 344 338 331 332 330 321 317 312 311 314 315 317 322 319 305 298 288 211 186 197 187 175 176
124 123 120 127 132 132 120 124 127 133 131 127 131 131 138 144 147 149 153 163 191 240 310 324 325 327 326 315 313 308 304 303 304 310 308 301 299 304 309 312 311 309 313 310 314 319 322 321 316 314 316 319 316 313 315 316 330 346 346 350 350 352 353 347 342 336 335 330 320 312 319 324 327 329 331 328 320 304 272 222 178 171 191 176 169
124 123 122 122 122 123 130 131 129 130 127 132 133 131 134 139 146 153 152 168 189 196 251 276 290 303 310 302 300 293 298 297 300 300 307 308 309 307 305 305 311 314 311 311 314 319 321 317 317 319 318 321 322 321 316 319 327 350 350 354 355 358 357 355 348 347 342 343 342 333 335 336 334 336 335 331 323 322 308 211 181 169 167 172 174
127 130 132 135 126 130 141 145 143 145 143 139 133 134 139 142 148 148 162 179 165 183 190 323 320 316 304 293 293 288 289 298 305 311 310 311 305 306 308 306 306 306 312 313 313 314 315 315 315 316 313 315 316 320 316 311 338 351 351 353 357 1 1 2 1 355 352 338 341 349 341 342 344 338 340 337 337 332 333 341 248 155 134 143 166
129 128 121 129 126 126 119 121 123 121 127 127 131 133 140 143 137 155 150 147 138 104 19 312 312 316 312 303 302 298 307 312 317 315 313 308 309 307 305 309 309 307 311 310 314 313 313 314 312 312 313 309 313 314 313 315 347 351 353 354 358 1 4 4 4 3 360 355 354 342 350 348 343 346 343 343 344 344 352 354 345 337 163 151 155
120 119 119 124 129 129 132 129 129 128 127 133 139 141 148 142 145 146 153 156 133 92 330 316 324 310 298 288 294 300 304 306 307 308 304 305 307 312 313 313 314 314 310 308 310 313 315 314 318 318 317 316 316 319 321 336 353 348 350 356 360 2 4 7 6 5 3 358 351 358 352 346 350 351 358 354 351 353 354 355 358 0 356 330 165